Location: Pic du Midi - T1M
(42.9366°N, 0.1426°E)
Time: 10:13:22
(UTC+01:00)

DUCHIFAT 1 - Pass Details

Date: 21 September 2021
Orbit: 583 x 603 km, 98.0° (Epoch: 22 October)

Event Time Altitude Azimuth Distance (km) Brightness Sun altitude
Rises 03:16:22 0° 9° (N) 2,837 ? -35.8°
Reaches altitude 10° 03:18:33 10° 7° (N) 1,928 ? -35.5°
Enters shadow 03:18:45 11° 6° (N) 1,845 ? -35.5°
